sat.trackr.live / text

‹ back to catalog

STARLINK-33630

NORAD 63477 · 2025-070T

PAYLOAD ACTIVE UNKNOWN

§ Identity

Operator
Country
US
Launch date
2025-04-06
Launch site
AFETR
Launch vehicle
Mass (kg)
RCS (m²)

Purposes: comms

External: N2YO · Heavens-Above · Gunter

§ Orbital elements

Epoch: 2026-05-24T20:07:48.414720Z

Period
94.27 min
Inclination
43.0036°
Eccentricity
0.0003739
Mean motion
15.27596405 rev/d
Perigee alt
480.4 km
Apogee alt
485.6 km
Semi-major
6,861.1 km
B*
3.9564e-4
RAAN
186.1699°
Arg perigee
271.6640°
Mean anomaly
88.3784°
Rev number
6,466

§ Raw data

STARLINK-336301 63477U 25070T   26144.83875480  .00010647  00000+0  39564-3 0  99982 63477  43.0036 186.1699 0003739 271.6640  88.3784 15.27596405 64667

JSON: /api/v1/satellites/63477 · /tle

For live sub-satellite position, see the globe view (requires WebGL).

§ Visibility from observer

Set your observer location to see the next 7 days of passes ≥ 10°. The values pass through the URL so the page stays shareable.

No JS? Fill the form by hand. The geolocation button needs JavaScript.